Wind_Speed
4 4 5 6 6 7 7 6 6 6 5 5 5 5 5 5 5 5 5 6 6 6 7 8 9 10 10 11 11 11 11 12 12 12 12 12 12 11 11 11 12 13 14 14 14 14 14 14 15 15 15 13 11 10 9 10 11 11 12 12 12 11 11 10 9 9 9 9 9
4 4 4 5 6 6 7 7 6 6 6 5 5 5 4 4 4 4 4 5 5 4 5 5 6 7 8 9 10 11 11 12 12 12 12 12 11 11 10 10 12 12 13 13 13 13 13 13 12 12 11 10 9 9 9 9 10 10 10 11 10 10 9 9 8 9 8 8 8
5 4 4 4 5 5 6 6 6 6 6 6 6 5 4 4 4 4 4 4 4 4 4 4 4 5 6 8 9 10 11 11 12 12 12 12 11 10 10 10 11 11 11 12 12 12 11 11 10 10 10 10 10 10 10 10 10 10 10 10 10 9 9 8 9 9 9 9 9
5 5 5 4 4 4 4 4 5 5 5 5 6 5 5 4 4 4 4 4 4 4 4 5 5 5 5 6 7 9 9 10 10 10 11 11 10 10 11 11 12 12 11 11 11 11 10 10 10 10 10 10 10 10 10 11 11 10 10 10 9 9 9 9 10 10 10 9 9
5 4 4 4 4 4 4 4 4 4 5 5 5 5 5 4 4 4 4 4 5 5 5 5 5 5 5 6 7 7 8 8 9 9 10 11 11 11 12 12 12 12 11 10 10 10 10 11 11 11 11 11 11 11 11 10 10 10 10 10 9 9 9 9 9 9 9 8 9
4 4 4 4 4 4 4 4 4 4 4 4 4 4 4 4 4 4 5 5 6 6 6 6 7 7 7 8 8 9 9 10 10 10 10 11 12 12 13 13 12 11 10 10 10 10 10 10 11 11 12 12 12 11 10 9 9 9 9 9 9 9 9 9 9 8 8 7 7
4 4 4 3 3 3 4 4 4 4 4 4 4 4 4 4 4 4 5 6 6 7 8 8 8 9 10 11 11 12 12 12 12 11 11 11 12 12 12 12 11 10 9 8 8 8 8 8 9 10 10 10 10 10 9 9 9 9 9 9 9 9 9 8 8 7 6 6 6
4 4 4 4 3 3 4 4 4 4 4 4 5 5 5 5 5 5 6 6 7 8 9 10 11 11 12 12 12 13 13 14 13 12 11 11 10 10 9 8 8 7 7 6 6 5 6 6 6 7 8 8 9 9 9 9 9 9 10 10 9 9 9 8 8 6 5 5 5
5 5 4 4 4 4 4 4 4 4 5 5 6 6 6 6 6 6 7 8 8 9 10 11 11 11 11 11 11 11 11 11 10 9 8 7 5 4 4 4 4 4 4 3 3 3 4 5 5 6 7 8 9 9 10 10 9 9 10 9 9 8 8 8 7 6 5 5 5
5 5 5 5 5 5 5 5 4 4 5 6 7 7 7 7 7 7 7 8 8 9 9 8 7 7 7 7 7 8 7 6 5 4 3 2 1 1 1 1 1 1 1 2 3 4 5 6 7 8 9 10 10 10 10 10 9 9 9 9 9 8 7 6 5 5 5 5 5
6 6 6 6 6 5 5 5 5 5 5 6 7 7 7 7 7 7 7 6 7 7 7 6 4 3 3 4 5 5 4 4 4 5 5 4 4 3 3 3 2 1 2 4 5 7 8 9 9 9 10 10 10 10 10 9 9 8 9 9 8 7 6 5 5 5 5 4 4
6 6 6 6 6 5 5 5 5 5 5 6 6 6 6 7 7 6 5 5 4 5 5 5 4 4 4 5 6 6 5 5 5 5 6 7 6 6 5 4 2 0 3 6 7 8 8 9 8 8 8 9 9 9 8 8 7 8 9 9 7 6 5 4 4 5 6 5 6
6 6 6 6 5 5 4 4 5 5 5 6 6 6 6 6 6 5 4 3 3 4 5 5 4 4 5 5 5 5 5 5 4 4 4 5 5 5 4 4 3 1 3 6 7 7 7 8 7 7 7 7 7 7 7 6 6 8 9 9 7 6 5 6 7 8 8 7 7
5 5 5 4 4 4 4 4 4 5 5 5 5 5 5 5 5 4 3 4 5 5 5 5 4 4 5 4 4 4 3 3 2 2 3 4 5 4 3 3 3 2 3 5 5 6 6 7 7 6 6 6 5 6 6 6 7 7 8 8 8 9 9 9 9 9 8 8 8
4 4 4 3 3 3 3 3 4 4 4 4 5 4 4 3 3 3 3 5 5 5 4 4 5 5 6 5 5 4 3 3 2 2 3 3 3 1 1 2 2 2 2 3 4 5 6 6 6 6 5 5 5 6 7 7 8 8 9 9 11 12 12 11 11 10 9 9 10
4 3 3 2 2 2 2 3 3 3 4 4 5 4 4 4 4 4 4 4 4 4 3 4 5 6 6 5 5 4 3 2 1 1 1 1 1 3 4 5 5 4 4 4 5 5 6 6 6 6 6 6 7 8 9 9 10 10 11 12 12 12 12 12 11 11 10 10 11
3 3 3 2 2 3 3 3 3 3 4 4 4 4 5 5 4 4 4 4 4 4 4 5 4 4 4 4 3 2 1 1 1 2 3 4 4 5 6 7 8 7 7 6 6 7 8 8 8 8 9 9 10 11 11 11 11 12 12 13 13 13 13 12 12 12 12 12 13
3 3 3 3 4 4 4 4 4 4 4 3 3 4 4 4 3 4 5 6 5 4 4 4 3 3 3 3 3 3 2 2 4 5 6 6 5 6 7 9 9 9 8 8 9 10 11 11 10 10 11 11 12 12 12 12 12 13 13 14 14 14 14 13 13 13 13 13 14
4 4 5 5 5 5 5 5 4 4 4 4 4 3 3 3 4 5 5 6 6 4 3 3 4 3 3 4 4 3 3 4 6 7 7 7 7 8 9 10 10 9 9 10 12 12 12 11 10 10 11 12 12 12 12 12 13 13 14 14 14 14 14 14 13 13 14 14 14
5 5 6 6 6 5 5 5 4 4 4 4 3 3 3 5 6 6 6 6 5 4 3 3 4 4 4 3 4 4 5 6 8 9 9 10 11 12 12 12 11 11 11 12 12 12 11 10 10 10 11 12 12 12 12 12 13 13 14 14 14 14 14 13 13 13 14 14 14
4 5 5 5 5 5 5 4 4 4 4 4 3 3 4 6 7 7 7 6 4 4 5 6 6 6 6 5 4 6 7 8 10 11 12 12 13 14 13 13 13 13 13 12 12 11 10 10 10 11 11 12 12 12 12 13 13 13 14 14 14 14 13 13 13 13 13 13 13
3 4 4 4 5 4 4 4 3 3 3 3 3 3 5 6 7 8 7 6 5 5 6 7 6 6 5 5 5 7 9 10 11 11 12 13 14 14 14 13 13 13 13 12 11 10 10 11 11 12 12 13 13 13 13 13 13 13 13 13 13 13 13 12 12 12 12 12 12
1 2 3 3 4 3 3 3 3 3 3 3 3 4 6 7 8 8 7 6 5 5 5 5 5 5 6 6 8 9 11 11 11 12 13 14 15 15 14 13 13 13 13 12 11 11 11 12 13 13 13 14 14 13 13 13 13 13 13 13 13 13 13 13 12 12 11 11 11
0 1 1 1 1 1 2 3 4 4 4 4 5 6 7 8 8 8 7 6 5 5 5 6 7 8 9 10 11 12 12 13 13 14 16 16 16 16 15 14 14 14 13 12 12 12 12 13 13 13 13 13 13 13 13 13 13 13 13 13 13 13 13 13 13 12 11 11 10
2 2 2 2 2 3 3 4 4 5 5 5 6 7 8 8 8 7 7 7 7 7 9 10 11 12 13 13 14 14 15 15 16 17 17 18 17 17 16 16 15 14 13 12 12 12 13 13 13 13 13 13 13 13 13 13 13 13 13 13 13 13 12 12 11 11 10 9 9
4 5 5 5 5 5 5 5 5 4 4 5 7 8 8 9 9 9 9 10 11 12 13 15 15 15 15 16 16 16 16 17 17 16 16 16 16 16 16 16 15 14 13 12 11 12 12 13 13 13 12 12 12 12 13 13 13 13 13 13 12 12 11 10 9 8 8 7 7
7 7 7 6 6 6 6 6 6 5 6 7 9 10 10 11 11 12 13 14 15 16 16 17 17 16 17 17 17 17 16 16 16 16 16 16 16 16 16 15 15 14 13 12 12 11 11 12 12 12 12 12 12 12 12 12 12 12 12 11 11 10 9 8 7 7 6 6 5
9 8 7 7 7 7 7 7 7 8 9 10 11 12 13 14 14 15 16 16 16 16 16 16 16 16 16 17 17 17 16 16 16 16 17 17 17 17 16 16 15 14 13 12 12 11 11 11 12 12 12 11 11 11 11 11 11 10 10 10 9 8 7 7 6 6 5 4 3
9 8 8 7 8 8 8 9 9 10 11 12 13 14 15 15 16 16 16 16 16 16 16 16 16 16 16 16 16 16 16 16 16 17 17 17 17 17 16 16 15 14 13 12 12 12 12 12 12 12 12 11 11 10 10 10 9 9 9 9 8 8 7 7 6 5 4 3 2
9 9 8 8 9 9 9 10 10 11 11 12 13 14 15 15 15 15 15 15 15 15 15 15 16 16 17 17 17 16 17 17 17 17 17 17 17 17 16 15 15 14 13 12 12 12 12 12 12 12 11 10 10 9 9 8 8 9 9 9 9 8 8 7 6 5 4 3 3
9 9 9 9 10 10 10 10 10 11 12 13 13 14 14 14 14 15 15 15 15 15 15 16 17 17 17 17 17 17 17 16 16 16 16 16 16 16 15 15 14 13 12 12 12 12 12 12 12 11 10 9 9 8 8 8 8 9 9 9 8 8 7 6 6 5 4 4 3
10 9 9 10 11 10 10 10 11 12 13 13 13 13 13 14 14 14 15 15 14 15 15 16 17 17 17 17 16 16 16 16 16 16 15 16 15 15 15 15 14 13 12 12 12 12 12 12 11 11 10 9 9 8 8 9 9 9 9 9 8 7 6 6 5 5 4 4 4
10 10 10 11 11 11 10 11 12 13 13 13 13 13 13 14 14 14 14 13 13 14 15 16 17 17 16 16 16 16 15 15 15 15 15 15 15 15 15 15 14 13 12 12 12 12 12 11 11 10 9 9 8 8 8 8 8 8 8 8 7 6 6 6 5 5 5 4 4
11 11 12 12 12 12 12 12 13 14 14 13 13 13 13 13 14 14 13 13 13 13 14 15 16 16 16 16 16 16 15 15 15 14 14 14 15 15 16 16 15 13 12 12 12 12 11 11 10 10 9 9 8 8 7 7 7 7 7 7 6 6 5 5 4 4 4 4 4
12 12 13 12 12 12 13 14 14 14 14 14 13 13 13 13 13 12 12 11 11 12 13 14 15 16 16 15 15 15 15 15 14 14 13 13 14 15 16 16 15 14 13 13 12 12 11 10 10 9 8 8 8 7 7 7 7 7 7 7 6 6 5 5 5 5 6 6 6
12 13 13 13 13 13 14 15 15 15 14 14 13 13 13 12 11 11 10 10 11 12 13 14 15 15 15 14 14 13 13 13 13 13 13 13 14 16 17 17 16 14 13 12 12 11 10 10 9 8 8 8 7 7 7 8 8 8 8 8 7 7 7 7 7 7 8 8 8
12 13 13 13 14 14 15 16 16 15 14 14 13 13 12 12 11 10 9 9 10 12 13 14 14 14 13 13 13 12 12 12 13 14 14 15 16 17 17 17 16 14 12 11 11 11 10 10 9 8 8 8 8 8 8 8 9 9 9 9 8 8 8 8 8 8 9 9 10
12 12 12 13 14 15 16 16 16 15 14 14 13 12 11 11 10 10 9 9 10 11 12 13 13 12 12 12 13 13 13 14 14 15 16 16 16 16 16 16 15 13 12 10 10 10 9 9 9 8 8 8 8 8 8 8 8 9 8 8 8 8 8 8 8 8 8 8 9
12 12 12 14 15 16 16 16 15 14 14 13 12 11 11 10 10 9 9 9 9 11 12 13 13 13 13 13 14 15 15 15 15 15 16 15 15 14 14 14 13 12 11 9 8 8 8 8 8 8 9 9 8 8 8 7 8 8 7 7 7 7 6 6 6 6 6 6 7
12 12 13 14 15 16 16 15 14 13 12 12 11 11 11 10 10 9 9 9 10 11 12 13 14 14 14 15 15 16 16 16 16 15 15 14 14 13 12 12 11 10 9 8 6 6 6 6 7 8 8 8 8 7 7 6 6 6 6 5 5 5 5 5 5 4 4 4 5
12 12 13 14 15 15 15 14 13 12 11 11 11 11 11 10 9 8 9 10 11 12 13 14 15 15 15 15 15 15 16 15 15 14 14 13 13 12 11 10 10 9 8 7 5 5 5 4 5 6 7 7 7 6 5 5 4 4 4 4 4 3 3 3 3 3 3 3 3
Wind_Direction
178 188 194 198 201 204 205 207 208 210 210 211 210 212 216 219 221 225 226 226 222 220 218 217 218 218 218 217 214 211 208 207 205 205 208 212 218 225 230 231 228 226 226 227 228 228 229 232 235 237 238 236 233 229 228 230 234 236 234 230 225 222 221 221 222 221 219 216 218
136 155 173 183 191 196 198 197 196 196 197 197 195 195 195 196 193 193 192 191 188 188 189 193 198 202 204 204 203 201 199 198 199 202 207 214 220 224 223 219 217 217 218 218 218 218 218 220 220 218 213 208 202 201 204 209 214 217 216 213 212 212 212 212 212 214 216 217 223
113 122 137 153 167 177 181 182 183 185 185 185 186 186 184 183 181 177 174 172 174 175 173 171 173 179 187 192 193 193 192 193 196 201 206 210 211 209 206 203 201 200 199 199 201 202 201 200 197 193 188 184 184 187 192 195 200 203 204 206 209 212 214 215 218 223 226 228 232
109 110 114 122 134 144 152 159 165 169 172 174 177 178 178 178 174 166 160 162 163 162 161 157 155 158 167 176 182 184 186 188 192 195 196 194 190 186 185 185 181 179 179 181 182 182 181 180 177 175 173 174 177 181 185 189 194 199 202 207 212 215 219 223 229 233 233 231 231
109 106 104 106 111 116 123 133 146 153 160 168 172 172 171 168 163 155 149 146 143 142 143 147 147 149 155 162 170 173 175 177 179 179 178 175 174 176 180 181 175 170 168 168 168 169 171 172 172 171 170 172 175 178 183 189 194 200 206 212 216 219 222 226 230 232 229 224 223
109 105 103 103 106 110 116 123 133 140 149 159 163 162 160 157 153 147 140 133 128 127 129 133 135 140 145 151 155 157 159 162 165 168 170 170 171 173 175 173 172 171 170 168 168 168 172 176 178 179 179 181 183 185 189 195 201 207 210 213 215 217 218 219 220 219 216 213 209
117 115 112 111 114 117 122 127 132 137 143 148 148 146 145 145 143 139 133 127 123 123 125 127 129 133 138 140 141 144 148 153 158 164 171 174 174 169 166 166 169 172 174 174 171 170 174 180 185 186 188 191 192 192 194 200 206 209 209 206 205 205 205 204 206 206 203 202 197
135 130 128 126 129 129 130 132 136 139 139 136 132 129 129 131 131 133 132 130 127 126 127 127 128 131 134 134 135 136 139 143 147 151 156 158 157 155 154 154 156 158 161 165 164 166 171 180 188 189 191 194 194 192 192 196 200 201 199 192 189 191 194 191 190 189 188 188 186
147 144 143 144 144 143 140 139 139 137 133 129 125 122 121 121 123 127 129 127 127 128 127 125 126 128 130 130 130 130 130 131 130 131 135 141 144 144 141 138 138 140 143 149 157 164 171 179 185 186 185 187 185 184 184 188 190 190 186 178 171 177 184 184 178 173 170 168 165
150 148 149 148 148 149 148 145 142 138 131 128 125 122 120 118 118 119 119 120 125 125 123 118 120 125 127 123 120 116 115 114 105 98 101 117 133 141 121 111 116 127 151 165 166 168 171 176 178 179 180 180 177 175 176 180 182 180 174 166 159 159 166 171 161 151 147 145 140
152 150 148 146 144 147 149 143 140 136 133 129 126 124 121 118 112 108 109 115 121 117 110 102 98 93 91 92 91 89 86 77 62 62 71 82 85 85 85 83 77 126 172 167 165 167 170 173 174 172 172 172 170 168 168 172 175 169 158 149 147 146 147 146 132 120 112 109 102
151 149 148 145 144 146 145 139 134 131 129 127 124 121 118 112 103 100 104 114 113 104 94 87 78 69 66 68 69 70 69 65 60 63 70 75 73 70 65 55 35 115 167 161 163 166 168 168 165 159 156 161 163 162 160 163 163 152 140 133 134 134 126 111 94 82 76 71 73
147 146 144 142 143 145 142 134 129 125 123 120 116 114 110 105 100 98 99 100 91 85 84 83 78 69 61 59 60 63 65 66 64 58 52 45 37 27 16 2 341 274 183 163 160 160 159 155 150 143 141 149 155 153 147 143 138 131 125 122 122 115 97 81 74 72 72 75 80
141 140 138 139 142 142 137 128 122 119 116 113 108 104 102 102 101 98 92 85 81 81 82 83 77 69 62 60 63 67 68 62 54 28 4 351 346 340 333 323 297 251 202 169 156 151 146 141 140 139 140 141 142 138 129 118 109 103 103 105 104 97 89 83 79 78 80 84 87
133 128 127 129 132 131 123 114 108 106 105 104 98 92 88 83 74 74 81 86 84 85 87 86 80 77 78 80 83 85 81 64 42 20 1 348 342 331 202 171 180 185 176 159 149 145 143 140 140 142 141 134 125 117 111 104 98 94 94 95 93 91 88 86 83 82 82 83 83
120 113 107 105 102 95 88 87 88 89 92 92 91 85 73 59 49 53 73 89 93 96 99 101 92 91 92 94 92 88 78 59 33 24 48 81 126 146 146 139 133 124 118 120 127 131 134 135 134 131 124 116 110 106 104 102 101 101 100 99 96 92 89 85 83 81 80 79 77
105 94 85 74 62 55 54 57 64 73 79 83 85 81 72 62 63 79 100 112 116 117 115 112 101 98 104 112 111 103 88 104 137 144 139 133 136 134 127 119 112 106 102 103 105 107 108 108 110 109 106 104 103 103 103 104 104 104 103 100 97 93 90 87 84 82 79 76 73
91 81 71 59 50 46 44 44 50 61 70 74 70 67 66 70 93 115 126 129 130 130 125 121 116 118 127 133 128 120 124 148 137 132 128 125 124 118 111 105 102 101 100 97 93 91 90 89 93 96 98 99 100 102 103 104 104 104 102 100 97 94 92 90 87 84 80 76 72
83 75 66 56 49 45 44 43 47 57 69 71 66 64 78 113 132 137 136 132 128 125 125 130 132 130 127 124 115 109 113 120 115 111 109 107 103 97 94 94 95 95 94 91 87 85 83 83 86 91 96 98 99 100 102 103 103 103 102 100 98 96 94 92 90 87 83 79 75
76 68 58 48 41 39 38 39 44 60 77 83 84 89 115 140 145 143 137 129 124 124 130 133 127 116 104 93 89 94 99 100 99 96 93 91 88 87 86 88 89 90 88 87 86 86 87 90 93 96 97 98 99 100 101 102 103 104 103 101 99 98 96 94 92 89 86 83 80
57 49 40 31 26 26 29 35 46 69 89 97 98 106 126 140 140 136 129 122 123 123 118 110 102 96 89 80 82 92 98 97 94 91 89 87 85 85 86 87 88 88 89 90 91 93 96 98 100 100 100 99 99 99 100 101 103 103 103 102 100 99 98 96 94 91 89 87 84
25 22 17 12 13 17 26 39 56 73 83 85 88 110 130 133 129 124 120 120 121 112 102 91 85 80 79 82 94 104 105 102 98 94 91 89 87 85 85 86 87 88 88 89 92 96 98 98 98 98 98 98 97 97 97 99 100 100 99 98 97 96 95 93 90 87 84 83 83
8 4 1 3 7 17 35 57 67 65 62 66 85 119 131 127 121 118 117 116 111 99 87 78 76 81 89 99 109 112 111 107 104 99 95 91 87 85 83 83 83 82 82 82 85 88 91 92 93 93 93 94 94 95 95 95 96 95 94 92 90 88 85 81 78 75 73 72 73
103 355 343 346 7 49 78 83 77 69 69 85 107 124 128 122 117 115 113 109 101 92 89 92 96 100 105 109 112 112 111 107 104 99 94 89 86 83 80 78 76 75 75 77 80 82 83 85 87 88 90 91 93 93 92 91 90 90 88 87 85 82 78 73 69 66 64 63 63
204 199 185 164 144 126 111 97 83 76 81 101 118 125 124 119 116 113 110 105 102 102 105 107 108 109 110 109 107 104 101 99 96 93 90 87 84 82 79 76 74 73 74 76 79 81 82 82 83 85 86 88 91 91 90 88 86 84 83 83 82 81 79 76 71 67 64 61 60
189 175 161 149 136 122 110 99 87 84 95 114 123 124 121 118 116 113 111 108 108 109 110 111 111 110 109 106 102 98 95 94 93 93 92 91 89 87 86 84 81 79 79 80 81 82 82 82 82 82 82 83 86 88 89 87 84 82 82 82 83 84 84 83 79 75 71 67 65
169 158 149 140 129 118 109 103 98 102 113 122 123 122 119 117 115 113 112 111 112 113 114 114 113 112 111 110 106 104 102 101 101 101 100 99 98 95 93 92 89 87 86 87 86 86 84 82 81 80 79 78 79 82 85 86 85 84 85 87 88 90 91 90 87 83 78 75 74
160 153 147 139 128 119 113 110 111 116 122 124 123 121 119 118 116 115 115 115 117 117 117 116 117 117 116 114 111 109 107 106 106 105 104 103 100 98 95 93 91 90 90 90 91 90 89 85 82 81 79 77 78 79 81 84 86 88 91 93 94 95 93 91 87 84 81 79 80
159 154 148 140 131 123 120 119 121 123 124 125 124 123 122 121 119 119 118 119 119 118 116 116 117 116 114 111 110 109 107 107 107 106 104 102 100 98 95 93 91 90 90 91 92 93 91 87 83 81 80 79 80 80 82 83 86 88 89 88 87 86 84 80 79 77 78 78 82
161 157 151 143 135 130 128 127 127 128 128 129 128 126 125 123 122 122 121 120 119 119 119 118 117 114 111 110 109 109 108 108 107 106 104 102 100 98 96 94 92 91 90 91 92 92 90 87 83 81 80 79 79 80 82 84 86 87 87 85 82 81 81 80 78 77 76 76 82
163 159 153 146 139 136 134 133 133 134 135 135 133 131 128 125 124 124 124 123 123 123 123 122 118 115 114 113 112 111 110 110 108 106 104 102 100 99 97 94 92 91 90 89 90 89 87 84 81 79 78 77 77 80 83 88 90 92 93 92 90 89 87 86 84 84 82 81 84
164 160 155 149 144 141 139 139 140 141 142 140 137 135 131 128 126 127 127 127 126 126 125 123 120 118 117 116 115 114 113 112 110 107 106 104 102 100 97 93 91 89 88 87 87 86 84 82 79 78 78 78 80 84 88 92 94 95 96 97 96 95 95 96 96 96 95 94 93
164 161 157 151 148 146 146 147 148 147 146 143 141 138 135 132 130 129 129 129 129 127 126 124 123 121 119 118 117 116 115 113 112 110 108 106 105 102 98 94 90 88 87 86 86 85 83 81 80 80 81 82 84 87 90 92 94 95 96 98 99 101 103 105 105 103 101 98 98
166 163 159 155 153 151 152 153 153 151 147 144 143 141 138 135 132 131 131 132 133 132 131 130 128 126 124 123 122 120 119 118 117 115 114 112 110 106 101 96 93 90 89 89 88 86 84 82 83 83 84 85 86 87 89 91 93 95 96 99 102 104 105 105 103 99 94 91 92
168 164 161 158 157 156 156 155 154 151 147 143 142 142 141 139 138 137 137 140 141 140 138 137 136 134 132 131 129 127 125 123 122 122 121 119 114 107 101 97 94 92 91 91 90 88 85 84 84 85 86 88 88 89 90 92 92 93 95 96 97 98 98 96 92 87 84 81 79
171 167 163 160 159 158 156 154 152 149 146 144 143 143 143 144 145 146 149 151 148 144 142 141 140 138 136 133 131 129 126 124 122 120 118 114 108 103 99 96 94 93 91 90 89 87 85 84 84 85 88 89 90 91 92 92 91 91 91 90 89 89 88 87 86 84 82 78 73
175 171 167 163 161 158 155 153 151 148 147 147 147 147 147 149 152 156 160 158 150 146 145 144 143 141 138 133 128 123 120 117 116 114 111 106 103 101 100 99 98 96 93 89 87 86 85 85 85 86 86 87 88 89 90 90 89 88 86 85 84 83 84 84 86 86 83 78 71
178 176 172 166 161 158 155 153 151 150 150 151 152 154 156 159 161 164 164 159 152 149 148 147 145 141 135 127 122 117 115 115 114 112 109 105 103 101 101 101 101 100 97 94 90 88 87 85 84 82 80 79 80 81 83 85 85 84 82 81 80 81 82 84 86 87 85 80 71
179 178 175 169 163 159 155 153 153 154 156 158 159 161 165 168 169 169 165 158 150 146 145 143 139 133 127 123 121 120 119 119 116 112 108 105 102 99 98 99 101 102 104 104 101 97 92 86 78 74 72 71 69 70 73 77 80 81 79 78 77 77 78 79 82 84 84 80 74
181 179 177 173 167 162 159 157 157 161 164 165 165 167 171 175 174 170 161 150 142 138 136 133 130 128 126 126 126 126 124 122 118 114 109 106 103 100 99 100 102 105 109 113 114 111 104 91 73 67 65 64 62 61 63 68 75 79 79 77 74 72 69 68 69 70 70 71 70
183 181 178 176 172 168 164 162 163 166 169 169 169 171 174 176 175 165 151 141 138 135 133 130 129 129 130 132 132 131 128 126 122 119 115 112 110 109 108 109 110 112 115 119 123 123 119 106 75 63 61 60 58 56 55 58 67 74 76 73 70 64 57 51 46 42 41 39 39
Height
795 795 795 795 795 796 796 796 796 796 796 796 796 796 796 796 796 796 796 796 796 796 796 796 796 796 796 796 797 797 798 798 799 799 800 800 801 801 801 802 803 804 805 805 806 806 806 807 807 808 808 808 809 809 809 810 811 811 811 812 813 813 813 813 814 814 814 815 815
795 795 795 795 795 795 796 796 796 796 796 796 796 796 796 796 796 796 796 796 796 796 796 796 796 796 796 796 796 797 797 798 798 799 799 800 800 801 801 802 803 803 804 804 805 805 805 805 806 806 807 807 807 808 809 809 810 810 811 811 812 812 812 812 812 813 813 813 814
796 796 796 796 796 796 796 796 796 796 796 796 796 796 796 796 796 796 796 796 796 796 796 796 796 796 796 796 796 797 797 797 798 798 799 800 800 801 801 802 803 803 803 804 804 804 804 804 805 805 806 806 807 807 808 808 809 810 810 811 811 811 811 811 811 812 812 812 812
796 796 796 796 796 796 796 796 796 796 796 796 796 796 796 796 797 797 796 796 796 796 796 796 796 796 796 796 797 797 797 797 798 798 799 799 800 801 801 802 802 803 803 803 803 803 803 803 804 805 806 806 806 807 807 808 808 809 809 810 810 810 811 811 811 811 811 811 811
796 796 796 796 796 796 796 796 796 796 796 796 796 796 796 797 797 797 797 797 796 796 796 796 796 796 796 797 797 797 797 798 798 799 799 799 800 801 802 802 802 802 802 803 803 802 803 803 804 805 805 806 806 806 807 807 808 808 809 809 809 810 810 810 810 810 810 810 810
796 796 796 796 796 796 796 796 796 796 796 796 796 796 797 797 797 797 797 797 797 797 797 797 797 797 797 797 797 797 797 798 798 799 799 800 801 801 802 802 802 802 802 803 803 802 803 803 804 804 805 805 806 806 806 807 807 808 808 809 809 809 809 809 809 809 809 809 809
797 797 797 797 797 797 797 797 797 797 797 797 797 797 797 797 797 797 797 797 797 797 797 797 797 797 797 797 797 797 797 798 798 798 799 801 802 802 802 802 801 801 802 803 803 803 803 804 804 805 805 806 806 806 806 807 807 808 808 808 808 808 808 808 808 808 808 808 808
797 797 797 797 797 797 797 797 797 797 797 797 797 797 797 797 797 797 798 798 798 798 798 798 798 798 798 798 798 798 798 798 798 799 800 801 802 802 802 801 801 801 802 803 803 803 804 804 805 805 805 806 806 806 806 807 807 807 807 807 807 807 807 807 807 808 808 808 808
797 797 797 797 797 797 797 797 797 797 797 797 797 797 797 798 798 798 798 798 798 798 798 799 799 799 799 799 799 799 799 799 799 800 801 802 802 802 802 801 801 802 802 803 804 804 804 805 805 805 805 806 806 806 806 806 806 806 806 806 806 806 807 807 807 807 807 808 808
797 797 797 797 797 797 797 797 797 797 797 797 798 798 798 798 798 798 798 798 799 799 799 799 800 800 799 799 799 800 800 800 801 801 801 802 802 802 801 801 802 802 803 803 804 804 804 804 804 804 805 805 805 805 805 805 805 805 806 806 806 806 806 806 807 807 807 807 808
797 797 797 797 797 797 797 797 797 797 798 798 798 798 798 799 799 799 799 799 799 799 800 800 800 800 800 800 800 800 801 801 801 801 801 802 802 801 802 802 802 802 803 803 803 803 804 804 804 804 804 804 804 804 805 805 805 805 805 806 806 806 806 807 807 807 807 808 808
798 798 797 798 798 798 798 798 798 798 798 798 798 799 799 799 799 800 800 800 800 800 800 800 800 800 800 800 801 801 801 801 801 801 802 802 802 802 802 802 803 803 803 803 803 803 803 803 803 803 803 804 804 804 804 805 805 805 805 806 806 806 806 807 807 807 808 808 808
798 798 798 798 798 798 798 798 798 798 798 798 799 799 799 799 800 800 800 800 800 800 801 801 801 801 801 801 801 801 801 801 802 802 802 802 802 802 803 803 803 803 803 803 803 803 803 803 803 803 803 804 804 804 805 805 805 805 806 806 806 807 807 807 807 808 808 808 808
798 798 798 798 798 798 798 798 798 798 799 799 799 799 800 800 800 800 801 801 801 801 801 801 801 801 801 801 801 801 801 802 802 802 802 802 802 802 802 803 803 803 803 803 803 803 803 803 804 804 804 804 804 804 805 805 805 806 806 806 806 807 807 807 807 807 808 808 808
799 799 799 799 799 799 799 799 799 799 799 799 799 800 800 800 800 800 801 801 801 801 801 801 801 801 801 802 802 802 802 802 802 802 802 802 802 802 802 802 802 802 803 803 803 803 803 804 804 804 804 804 804 805 805 805 806 806 806 806 806 807 807 807 807 808 808 808 808
799 799 799 799 799 799 799 799 799 799 799 799 800 800 800 800 800 800 801 801 801 801 801 801 801 801 802 802 802 802 802 802 802 802 802 802 802 802 802 802 802 802 803 803 803 803 803 804 804 804 804 804 804 805 805 805 806 806 806 806 806 806 807 807 807 808 808 808 808
799 799 799 799 799 799 799 799 799 799 799 800 800 800 800 800 800 801 801 801 801 801 801 801 801 802 802 802 802 802 802 802 802 802 802 802 802 802 802 802 802 803 803 803 803 803 803 804 804 804 804 804 804 805 805 805 806 806 806 806 806 806 807 807 808 808 808 808 808
799 800 800 800 799 799 799 799 799 800 800 800 800 800 800 801 801 801 801 801 801 801 801 801 801 802 802 802 802 802 802 802 802 802 802 802 802 802 802 802 803 803 803 803 803 803 804 804 804 804 804 804 804 805 805 805 806 806 806 806 806 807 807 808 808 808 808 808 808
800 800 800 800 800 800 800 800 800 800 800 800 800 800 800 801 801 801 801 801 801 801 801 801 801 802 802 802 802 802 802 802 802 802 802 802 802 802 803 803 803 803 803 803 803 804 804 804 804 804 804 804 804 805 805 806 806 806 806 806 807 807 808 808 808 808 808 808 808
800 800 800 800 800 800 800 800 800 800 800 800 800 800 800 800 801 801 801 801 801 801 801 801 801 802 802 802 802 802 803 802 802 802 803 803 803 803 803 803 803 803 804 804 804 804 804 804 804 804 804 805 805 805 805 806 806 806 807 807 807 807 808 808 808 808 808 808 809
800 800 800 800 800 800 800 800 800 800 800 800 800 801 801 801 801 801 801 801 801 801 801 802 802 802 802 802 803 803 803 803 803 803 803 803 803 803 804 804 804 804 804 804 804 804 805 805 805 805 805 805 805 805 806 806 806 807 807 807 808 808 808 808 809 809 809 809 809
800 800 801 801 800 800 800 800 800 800 800 801 801 801 801 801 801 801 801 801 801 801 802 802 802 802 802 803 803 803 803 803 803 804 804 804 804 804 804 804 804 804 804 804 805 805 805 805 805 805 805 805 806 806 806 807 807 807 807 808 808 808 809 809 809 809 809 810 810
800 800 801 801 801 801 801 801 801 801 801 801 801 801 801 801 801 801 801 801 801 802 802 802 802 802 802 803 803 803 803 803 804 804 804 804 804 805 805 805 805 805 805 805 805 805 805 805 805 806 806 806 806 807 807 807 808 808 808 808 808 809 809 809 810 810 810 811 811
800 800 801 801 801 801 801 801 801 801 801 801 801 801 801 801 801 801 801 801 801 802 802 802 802 802 803 803 803 804 804 804 804 804 805 805 805 805 805 805 805 805 805 806 806 806 806 806 806 806 806 807 807 807 808 808 808 808 808 808 809 809 810 810 810 811 811 811 811
800 800 801 801 801 801 801 801 801 801 801 801 801 801 801 801 801 801 801 802 802 802 802 802 803 803 803 804 804 804 804 804 805 805 805 806 806 806 806 806 806 806 806 806 806 806 806 807 807 807 807 807 808 808 808 808 808 808 809 809 809 810 810 811 811 811 812 812 812
800 800 800 801 801 801 801 801 801 801 802 802 802 802 802 802 802 802 802 802 802 802 803 803 803 804 804 804 805 805 805 806 806 806 806 806 807 807 807 807 807 807 807 808 808 808 807 808 808 808 808 808 808 808 808 808 809 809 809 810 810 811 811 812 812 812 813 813 813
800 800 800 801 801 801 801 801 801 802 802 802 802 802 802 802 802 802 802 802 803 803 803 803 804 804 805 805 805 806 806 806 806 807 807 807 807 808 808 808 808 808 809 809 809 809 809 808 808 809 809 809 809 809 808 809 809 810 810 811 811 812 812 812 813 813 813 814 814
800 800 801 801 801 801 801 801 802 802 802 802 802 803 803 803 803 803 803 803 803 804 804 804 804 805 805 805 806 806 806 807 807 807 808 808 808 808 808 809 809 809 810 810 810 810 810 809 809 809 809 809 809 809 809 809 810 810 811 811 812 812 813 813 813 814 814 814 814
800 800 801 801 801 801 801 802 802 802 803 803 803 803 803 803 803 803 804 804 804 804 804 805 805 805 806 806 806 807 807 807 808 808 808 808 809 809 809 809 810 810 811 811 811 811 810 810 810 810 810 810 810 810 810 810 811 811 812 812 813 813 813 814 814 814 814 815 815
800 800 801 801 801 802 802 802 802 803 803 804 804 804 804 804 804 804 804 804 804 805 805 805 805 806 806 807 807 807 808 808 808 809 809 809 809 810 810 810 811 811 811 811 811 811 811 810 810 810 810 810 811 811 811 811 812 812 812 813 813 813 814 814 814 815 815 815 815
800 801 801 801 801 802 802 803 803 803 804 804 804 804 804 804 804 804 805 805 805 805 806 806 806 806 807 807 808 808 808 809 809 809 809 810 810 810 811 811 811 811 812 812 811 811 811 811 811 811 811 811 811 812 812 813 813 813 813 813 814 814 814 814 815 815 815 815 816
800 801 801 801 802 802 803 803 803 804 804 804 804 804 805 805 805 805 805 805 806 806 806 806 806 807 807 808 808 808 809 809 810 810 810 810 811 811 811 811 811 812 812 812 812 811 811 811 811 812 812 812 813 813 813 813 814 814 814 814 814 815 815 815 815 816 816 816 816
800 801 801 801 802 802 803 803 804 804 804 804 805 805 805 805 805 806 806 806 806 806 806 807 807 807 808 808 809 809 809 810 810 810 811 811 811 811 811 811 812 812 812 812 812 812 812 812 812 813 813 813 814 814 814 814 814 814 815 815 815 815 816 816 816 816 816 816 816
800 801 801 802 802 802 803 803 804 804 804 804 805 805 805 806 806 806 806 806 807 807 807 807 808 808 808 809 809 809 810 810 811 811 811 811 811 811 811 812 812 813 813 813 813 813 813 813 813 814 814 815 815 815 815 815 815 815 815 815 816 816 816 816 816 816 816 816 816
800 801 801 802 802 802 803 803 804 804 804 805 805 806 806 806 806 806 806 807 807 807 807 808 808 809 809 809 810 810 810 810 811 811 811 811 811 811 811 812 812 813 813 814 814 814 814 814 815 815 815 816 816 816 816 816 816 816 816 816 816 816 816 817 817 817 817 817 817
800 801 801 802 802 802 803 803 803 804 804 805 805 806 806 806 806 807 807 807 807 807 808 808 809 809 809 810 810 810 810 811 811 811 811 811 811 811 811 812 813 814 814 814 815 815 815 815 816 816 816 816 816 816 816 816 816 816 816 817 817 817 817 817 817 817 817 817 817
800 801 801 802 802 802 803 803 803 804 804 805 806 806 806 806 807 807 807 807 807 808 808 809 809 809 810 810 810 811 811 811 811 812 812 812 812 812 812 813 814 814 815 815 816 816 816 816 817 817 817 817 817 817 817 817 817 817 817 817 817 818 818 818 818 818 818 818 817
801 801 801 802 802 802 803 803 803 804 805 806 806 806 806 807 807 807 808 808 808 808 808 809 809 810 810 810 811 811 811 812 812 812 812 813 813 813 813 813 814 815 816 816 817 817 817 817 818 818 818 817 817 817 817 818 818 818 818 818 818 818 818 818 818 818 818 818 818
801 801 801 801 802 802 803 803 804 804 805 806 806 807 807 807 807 808 808 808 808 808 808 809 809 810 810 811 811 811 812 812 813 813 813 813 813 814 814 814 815 816 816 817 818 818 818 818 818 818 818 818 818 818 818 818 818 818 819 819 819 819 819 819 819 819 819 818 818
801 801 801 801 802 802 803 803 804 805 806 806 806 807 807 808 808 808 808 808 808 809 809 809 810 810 811 811 811 812 812 813 813 813 813 814 814 815 815 816 816 817 817 818 819 819 819 819 819 819 819 818 819 819 819 819 819 819 819 819 819 819 819 819 819 819 819 819 819
801 801 801 802 802 803 803 804 805 805 806 806 807 807 808 808 808 808 808 808 809 809 809 810 810 811 811 812 812 812 812 813 813 813 814 814 815 815 816 816 817 817 818 819 819 819 819 819 819 819 819 819 819 819 819 819 819 820 820 820 820 820 820 820 819 819 819 819 819